KAZSAT-2

Last updated on Sat Jul 05 2025 00:02:45 GMT+0000 (Coordinated Universal Time)

1 37749U 11035B 25185.51115791 -.00000184 00000+0 00000+0 0 9993 2 37749 0.0401 180.1834 0001431 339.8922 33.2017 1.00272397 51088
UTC large
Height (km)
Speed (km/s)
/
Latitude / Longitude
Inclination (degrees)
Orbital Period (minutes)
Azimuth
Elevation
Range (km)
Doppler Factor

Next 0 passes for location: London (51.5072 / 0.1276)

Sorry there are no passes over London.